Volver al catálogo

STARLINK-4342

ActivoComunicacionesSSO
NORAD 53070·PAYLOAD·🇺🇸 United States

Lanzado Jul 11, 2022 desde Vandenberg Space Force Base

Loading…

Próximos Pases (próximas 24 horas)

TLE

ActualizadoSource: CelesTrak SupGP

Época: Sep 14, 2026, 21:43 UTC

1 53070C 22077AD  26257.90534722  .00689340  00000+0  21526-1 0  2570
2 53070  97.2855  73.6362 0001488  96.0485 114.9415 15.32900711    18

Sigue STARLINK-4342 en tiempo real con AllMySat

Download on the App Store